Regional Weather Roundup
Issued by NWS Newport/Morehead, NC

Current Version | Previous Version | Graphics & Text | Print | Product List | Glossary Off
Versions: 1 2 3 4 5 6 7 8 9 10 11 12 13 14 15 16 17 18 19 20 21 22 23 24 25 26 27 28 29 30 31 32 33 34 35 36 37 38 39 40 41 42 43 44 45 46 47 48 49 50

000
ASUS42 KMHX 310513
RWRMHX
WEATHER ROUNDUP FOR EASTERN NORTH CAROLINA
NATIONAL WEATHER SERVICE NEWPORT/MOREHEAD CITY NC
100 AM EDT WED AUG 31 2016

NOTE: "FAIR" INDICATES FEW OR NO CLOUDS BELOW 12,000 FEET
WITH NO SIGNIFICANT WEATHER AND/OR OBSTRUCTIONS TO VISIBILITY

NCZ015>017-031-032-045>047-102-103-310600-
NORTH COAST

CITY           SKY/WX    TMP DP  RH WIND       PRES   REMARKS
EDENTON        CLEAR    N/A N/A N/A N6        30.01F
ELIZABETH CITY PTCLDY    77  75  93 NE7       30.00F
KITTY HAWK     CLEAR     78  77  94 NE5       29.98S
MANTEO         CLEAR     78  76  92 NE7       29.99S

$$

NCZ045>047-081-094-103-104-310600-
CENTRAL COAST

CITY           SKY/WX    TMP DP  RH WIND       PRES   REMARKS
FRISCO         CLEAR     78  74  87 NE5       29.97S

$$

NCZ095-097-098-100-101-310600-
SOUTHERN COAST

CITY           SKY/WX    TMP DP  RH WIND       PRES   REMARKS
BEAUFORT       CLEAR     77  76  96 N5        29.98F
CEDAR ISLAND   NOT AVBL
JACKSONVILLE   CLEAR     75  73  93 CALM      30.00F
PINEY ISLAND   NOT AVBL
WILMINGTON     PTCLDY    75  74  96 CALM      30.01S


$$

NCZ011>013-027>030-043-044-078>080-089-090>093-098-310600-
COASTAL PLAIN

CITY           SKY/WX    TMP DP  RH WIND       PRES   REMARKS
AHOSKIE        NOT AVBL
CLINTON        PTCLDY    75  74  98 CALM      30.03S
ELIZABETHTOWN  CLOUDY    79  75  87 CALM      30.02S
GOLDSBORO      CLEAR     75  75 100 CALM      30.01F
GREENVILLE     FOG       73  73 100 CALM      30.03S VSB 1
HAVELOCK       PTCLDY    78  75  90 NW6       30.00F
KENANSVILLE    PTCLDY    72  72 100 CALM      30.02F
KINSTON        CLEAR     74  73  96 CALM      30.02F
NEW BERN       CLEAR     75  73  93 CALM      30.01F FOG
RICHLANDS      PTCLDY    73  72  96 CALM      30.01F
ROCKY MOUNT    PTCLDY    73  72  96 CALM      30.03S
WASHINGTON     CLEAR     73  72  96 CALM      30.01S
WHITEVILLE     PTCLDY    77  75  93 CALM      30.02S

$$

AMZ130-135-150-152-154-156-158-170-250-252-270-ANZ085-086-088-633-658-670-310600-
MARINE OBSERVATIONS

STATION/POSITION TIME  TEMP    WIND        PRES    WAVE   SWELL
                       AIR SEA DIR/SP/G            HT/PER HT/PER
                 (UTC) (F)     (DEG/KT/KT) (MB)    (FT/S) (FT/S)
CHESAPEAKE LIGHT NOT AVBL
64 E VA BEACH    0450   80 80   70/ 16/ 17 1015.3    5/11   3/11
DUCK             0400   80 80   60/ 14/ 15 1015.4
2 E DUCK         0411      79                N/A     4/10   2/11
OREGON INLET     0400   80 82   40/ 10/ 12 1015.3
13E OREGON INLT  0500      80                N/A     5/11   5/11
HATTERAS CG      0400   81 83   30/ 12/ 16 1014.6
DIAMOND BUOY     0450   81 84   80/  6/  8 1014.4    5/11   5/11
CAPE LOOKOUT     0500   79     350/  5/  6 1014.9
BEAUFORT LAB     0400   79 81   10/  4/  6 1015.0
30 SE NEW RVR IN 0408   82 84   20/  8/ 12 1015.6
30 SE NEW RVR IN 0425      84                N/A     4/10   2/11
27 SE WRIGHTSVLE 0408   83 84   30/  8/ 12 1016.1
5 SE WRIGHTSVLE  0408   82 83   70/  6/ 10 1017.1
225 S CAPE HAT   0450   83 83  200/ 14/ 16 1016.3    4/11   3/11
41 SE CHARLESTON 0450   83 85  130/  6/  8 1015.2    4/11   3/11

$$




USA.gov is the U.S. government's official web portal to all federal, state and local government web resources and services.